Station: Lady Elliot Island  

  Atmospheric Gas Attenuation - ITU Rec 676-11   ----------------- dB/100km -----------------
Date Time Temp RH % AH g/m3 Dew Point Wind Direction Speed kph Gust kph Barometer mB Rainfall Since 9am 24GHz 47GHz 76GHz 122GHz 134GHz 241GHz
05/09 05:10 21.7 83 15.83 18.7 17 26 1021.2 0 34.5 35.9 66.0 174.3 186.8 648.0
05/09 05:00 21.6 83 15.74 18.6 19 22 1021.2 0 34.3 35.8 65.7 173.5 185.7 644.1
05/09 04:50 21.5 82 15.46 18.3 19 26 1021.2 0 33.7 35.4 64.5 170.3 181.7 630.4
05/09 04:40 21.7 83 15.83 18.7 17 20 1021.1 0 34.5 35.9 66.0 174.3 186.8 647.9
05/09 04:30 21.5 83 15.65 18.5 19 24 1021 0 34.1 35.7 65.4 172.6 184.5 640.2
05/09 04:20 21.4 83 15.56 18.4 20 24 1020.9 0 33.9 35.6 65.0 171.7 183.4 636.3
05/09 04:10 21.6 84 15.93 18.8 17 22 1021 0 34.7 36.2 66.6 175.8 188.5 653.9
05/09 04:00 21.3 85 15.84 18.7 17 20 1020.9 0 34.5 36.1 66.4 175.3 187.9 651.8
05/09 03:50 21.5 86 16.22 19.1 20 24 1020.9 0 35.3 36.7 68.0 179.5 193.1 670.0
05/09 03:40 21.2 86 15.94 18.8 20 26 1020.8 0 34.8 36.3 66.9 176.8 189.6 657.8
05/09 03:30 21.2 86 15.94 18.8 22 26 1020.8 0 34.8 36.3 66.9 176.8 189.6 657.8
05/09 03:20 21.3 87 16.22 19 20 26 1020.9 0 35.4 36.8 68.2 180.0 193.6 671.8
05/09 03:10 21.4 86 16.12 19 19 22 1021 0 35.1 36.6 67.6 178.6 191.9 665.7
05/09 03:00 21.5 87 16.4 19.2 20 26 1020.9 0 35.7 37.1 68.8 181.8 195.8 679.5
05/09 02:50 21.6 87 16.5 19.3 19 24 1020.9 0 35.9 37.2 69.2 182.8 197.1 683.9
05/09 02:40 21.4 87 16.31 19.1 17 24 1021 0 35.5 37.0 68.5 180.9 194.7 675.7
05/09 02:30 21.3 87 16.22 19 19 24 1020.9 0 35.4 36.8 68.2 180.0 193.6 671.8
05/09 02:20 21.4 88 16.5 19.3 20 26 1020.7 0 35.9 37.3 69.4 183.2 197.6 685.6
05/09 02:10 21.5 89 16.78 19.6 19 28 1020.6 0 36.5 37.8 70.6 186.5 201.6 699.6
05/09 02:00 21.4 88 16.5 19.3 19 24 1020.7 0 35.9 37.3 69.4 183.2 197.6 685.6
05/09 01:50 21.4 89 16.68 19.5 15 24 1020.7 0 36.3 37.6 70.2 185.5 200.4 695.3
05/09 01:40 21.4 89 16.68 19.5 17 24 1020.7 0 36.3 37.6 70.2 185.5 200.4 695.3
05/09 01:30 21.2 89 16.49 19.3 13 20 1020.8 0 35.9 37.4 69.5 183.6 198.0 687.0
05/09 01:18 21.3 89 16.59 19.4 11 15 1020.8 0 36.1 37.5 69.9 184.6 199.3 691.4
05/09 01:01 21.1 89 16.4 19.2 15 17 1021 0 35.8 37.3 69.2 182.7 196.9 683.2
05/09 01:00 21.1 89 16.4 19.2 13 17 1021 0 35.8 37.3 69.2 182.7 196.9 683.2
05/09 00:39 21.2 89 16.49 19.3 15 20 1020.8 0 35.9 37.4 69.5 183.6 198.0 687.0
05/09 00:27 21.3 88 16.4 19.2 15 17 1020.7 0 35.7 37.2 69.0 182.2 196.3 681.2
05/09 00:20 21.4 89 16.68 19.5 17 22 1020.7 0 36.3 37.6 70.2 185.5 200.4 695.3
05/09 00:10 21.4 89 16.68 19.5 17 24 1020.7 0 36.3 37.6 70.2 185.5 200.4 695.3
05/09 00:00 21.3 89 16.59 19.4 19 24 1020.8 0 36.1 37.5 69.9 184.6 199.3 691.4
04/09 23:50 21.4 89 16.68 19.5 22 28 1020.8 0 36.3 37.6 70.2 185.5 200.4 695.3
04/09 23:40 21.3 89 16.59 19.4 26 30 1020.7 0 36.1 37.5 69.9 184.6 199.2 691.4
04/09 23:30 21.4 89 16.68 19.5 22 28 1020.8 0 36.3 37.6 70.2 185.5 200.4 695.3
04/09 23:20 21.4 90 16.87 19.7 26 30 1020.8 0 36.7 38.0 71.1 187.9 203.3 705.5
04/09 23:10 21.4 90 16.87 19.7 22 28 1020.7 0 36.7 38.0 71.1 187.9 203.3 705.4
04/09 23:00 21.5 91 17.16 20 24 28 1020.8 0 37.3 38.5 72.4 191.3 207.5 720.2
04/09 22:50 21.4 90 16.87 19.7 24 28 1020.9 0 36.7 38.0 71.1 187.9 203.3 705.5
04/09 22:38 21.5 90 16.97 19.8 22 24 1020.9 0 36.9 38.2 71.5 188.9 204.6 710.0
04/09 22:30 21.5 89 16.78 19.6 22 26 1020.8 0 36.5 37.8 70.6 186.5 201.6 699.7
04/09 22:20 21.5 88 16.59 19.4 20 28 1020.9 0 36.1 37.4 69.7 184.1 198.7 689.6
04/09 22:10 21.6 87 16.5 19.3 20 33 1020.6 0 35.9 37.2 69.2 182.7 197.1 683.8
04/09 22:00 21.8 87 16.69 19.5 20 30 1020.6 0 36.3 37.5 69.9 184.6 199.4 692.1
04/09 21:50 21.7 88 16.79 19.6 20 28 1020.7 0 36.5 37.7 70.4 186.1 201.2 698.4
04/09 21:40 21.6 89 16.88 19.7 15 22 1020.7 0 36.7 37.9 71.0 187.5 202.9 704.1
04/09 21:30 21.7 88 16.79 19.6 15 22 1020.7 0 36.5 37.7 70.4 186.1 201.2 698.4
04/09 21:20 21.7 88 16.79 19.6 15 26 1020.7 0 36.5 37.7 70.4 186.1 201.2 698.4
04/09 21:10 21.6 86 16.31 19.2 15 22 1020.7 0 35.5 36.9 68.3 180.4 194.2 673.8
04/09 21:00 21.5 86 16.22 19.1 13 24 1020.7 0 35.3 36.7 68.0 179.5 193.1 669.9
04/09 20:49 21.7 88 16.79 19.6 13 19 1020.6 0 36.5 37.7 70.4 186.1 201.2 698.3
04/09 20:40 21.7 88 16.79 19.6 15 20 1020.5 0 36.5 37.7 70.4 186.1 201.2 698.3
04/09 20:30 21.5 88 16.59 19.4 13 22 1020.4 0 36.1 37.4 69.7 184.1 198.7 689.4
04/09 20:20 21.5 88 16.59 19.4 15 24 1020.3 0 36.1 37.4 69.7 184.0 198.7 689.3
04/09 20:10 21.6 89 16.88 19.7 15 22 1020.2 0 36.7 37.9 70.9 187.4 202.8 703.9
04/09 20:00 21.5 88 16.59 19.4 15 22 1020.3 0 36.1 37.4 69.7 184.0 198.7 689.3
04/09 19:50 21.6 87 16.5 19.3 13 22 1020.2 0 35.9 37.2 69.2 182.7 197.0 683.6
04/09 19:40 21.7 87 16.59 19.4 15 20 1020.2 0 36.1 37.3 69.5 183.5 198.1 687.5
04/09 19:30 21.7 87 16.59 19.4 15 24 1020 0 36.1 37.3 69.5 183.5 198.1 687.4
04/09 19:20 21.7 86 16.4 19.3 17 26 1019.9 0 35.7 36.9 68.6 181.1 195.2 677.3
04/09 19:10 21.8 87 16.69 19.5 17 24 1019.9 0 36.3 37.4 69.8 184.5 199.3 691.7
04/09 19:00 21.6 87 16.5 19.3 19 26 1019.7 0 35.9 37.2 69.1 182.6 196.9 683.4
04/09 18:50 21.7 88 16.79 19.6 19 24 1019.7 0 36.5 37.7 70.4 186.0 201.1 697.9
04/09 18:40 21.6 88 16.69 19.5 19 22 1019.7 0 36.3 37.5 70.0 185.0 199.8 693.5
04/09 18:30 21.6 88 16.69 19.5 19 22 1019.6 0 36.3 37.5 70.0 184.9 199.8 693.4
04/09 18:20 21.5 87 16.4 19.2 20 24 1019.6 0 35.7 37.0 68.7 181.6 195.7 678.9
04/09 18:10 21.5 87 16.4 19.2 22 26 1019.6 0 35.7 37.0 68.7 181.6 195.7 678.9
04/09 18:00 21.5 86 16.22 19.1 22 26 1019.3 0 35.3 36.7 67.9 179.3 192.9 669.2
04/09 17:50 21.5 86 16.22 19.1 22 26 1019.3 0 35.3 36.7 67.9 179.3 192.9 669.2
04/09 17:40 21.6 85 16.12 19 24 28 1019.2 0 35.1 36.4 67.3 177.8 191.1 663.1
04/09 17:30 21.8 85 16.31 19.2 22 28 1019.2 0 35.5 36.7 68.0 179.7 193.5 671.3
04/09 17:20 22 85 16.5 19.4 20 24 1019.2 0 35.9 37.0 68.7 181.6 195.8 679.5
04/09 17:10 22.1 83 16.2 19.1 22 24 1019.1 0 35.2 36.4 67.2 177.6 191.0 662.8
04/09 17:00 22.3 81 15.99 18.9 19 24 1019.1 0 34.8 35.9 66.1 174.6 187.4 650.2
04/09 16:50 22.4 80 15.89 18.8 20 24 1019.1 0 34.6 35.7 65.6 173.2 185.7 644.2
04/09 16:40 22.7 81 16.36 19.3 20 24 1019.1 0 35.5 36.4 67.5 178.2 191.9 666.0
04/09 16:30 22.8 80 16.25 19.2 20 22 1019.1 0 35.3 36.2 66.9 176.6 190.0 659.4
04/09 16:20 22.9 79 16.14 19.1 19 22 1019.1 0 35.0 35.9 66.3 175.1 188.1 652.8
04/09 16:10 23.1 77 15.92 18.8 17 22 1019.2 0 34.6 35.4 65.1 172.0 184.4 639.9
04/09 16:00 23 76 15.62 18.5 19 22 1019.1 0 33.9 34.9 63.9 168.6 180.2 625.4
04/09 15:50 23.1 75 15.5 18.4 17 24 1019.1 0 33.7 34.7 63.2 167.0 178.3 618.5
04/09 15:40 23.2 75 15.59 18.5 15 20 1019 0 33.9 34.8 63.6 167.8 179.3 622.2
04/09 15:30 23.6 75 15.95 18.9 15 22 1019 0 34.6 35.3 64.8 171.2 183.6 637.2
04/09 15:20 23.5 75 15.86 18.8 17 24 1019 0 34.4 35.2 64.5 170.3 182.5 633.4
04/09 15:10 23.7 75 16.04 19 15 20 1019.1 0 34.8 35.4 65.1 172.1 184.7 640.9
04/09 15:00 23.4 73 15.35 18.3 15 20 1019.1 0 33.3 34.3 62.3 164.6 175.4 608.5
04/09 14:50 23.9 75 16.22 19.2 15 22 1019.3 0 35.1 35.6 65.8 173.8 186.8 648.5
04/09 14:40 23.7 74 15.83 18.8 17 22 1019.4 0 34.3 35.0 64.2 169.6 181.7 630.4
04/09 14:30 23.7 73 15.61 18.6 17 24 1019.6 0 33.9 34.7 63.3 167.0 178.5 619.4
04/09 14:20 23.8 74 15.92 18.9 17 24 1019.7 0 34.5 35.2 64.6 170.5 182.8 634.3
04/09 14:10 23.9 72 15.58 18.5 17 22 1019.8 0 33.8 34.5 63.0 166.3 177.6 616.4
04/09 14:00 23.9 72 15.58 18.5 17 24 1019.9 0 33.8 34.5 63.0 166.3 177.6 616.4
04/09 13:50 23.9 73 15.79 18.8 17 24 1020.1 0 34.2 34.9 63.9 168.8 180.7 627.1
04/09 13:40 23.9 73 15.79 18.8 17 24 1020.2 0 34.2 34.9 63.9 168.8 180.7 627.1
04/09 13:30 24.3 74 16.37 19.4 17 22 1020.4 0 35.4 35.8 66.2 174.8 188.2 653.3
04/09 13:20 24.7 72 16.3 19.3 15 20 1020.6 0 35.2 35.5 65.5 173.1 186.2 646.4
04/09 13:10 24.4 72 16.02 19 15 22 1020.7 0 34.7 35.1 64.6 170.5 182.9 634.8
04/09 13:00 24.3 71 15.71 18.7 17 26 1020.8 0 34.0 34.6 63.3 167.1 178.7 620.1
04/09 12:50 24.5 75 16.78 19.8 17 24 1021 0 36.3 36.5 67.9 179.3 193.8 672.8
04/09 12:40 24.7 75 16.98 20 17 24 1021.1 0 36.7 36.8 68.6 181.3 196.2 681.3
04/09 12:30 25 74 17.03 20 15 22 1021.3 0 36.7 36.7 68.6 181.2 196.2 681.3

Last Refresh: 05-Sep-2026 04:59:16

Bureau of Meteorology